SL-14 DEB, 45286

Orbit data source: Space-Track

SL-14 DEB, 45286 is space debris in LEO originally from a launch on Thu, 15 Aug 1991 UTC launched from the Plesetsk Missile And Space Complex (PKMTR). Debris objects in space refer to the collection of defunct objects orbiting the Earth. Examples of debris include non-operational satellites, rocket bodies, and fragments generated from explosions, collisions, or faulty payload assembly.

Loading next visibility...
Identifier
45286, 1991-056Y
Orbit
LEO
Country
Flag of CISCIS
Related business
Manufacturer
Unknown
Mission
Spacecraft
Bus & Motor
Unknown
Mass
Unknown
Launch date (UTC)
1991-08-15 (35 years ago)
Launch vehicle
Unknown
Launch site
Plesetsk Missile And Space Complex (PKMTR)
Object type
Payload
Rocket body
Debris
Shape & HBR
Unknown shape, 0.1 m
Radar Cross Section
Small (<0.1 m²)

Expand to show TLE details & history
Last TLE update: 16 hours ago

TLE from 16 hours ago
0 SL-14 DEB
1 45286U 91056Y   26126.17115098  .00000394  00000-0  10118-2 0  9994
2 45286  82.6307 190.2842 0021296 275.7153  84.1540 13.15683856298264
Epoch: 2026-05-06T04:06Z
TLE epoch observation values (Epoch: 2026-05-06T04:06:27.444Z)
Latitude
-0.00009°
Longitude
-95.36564°
Altitude
1,202.448 km
Speed
7.254 km/s
True Right ascension
12h 41m 08s
True Declination
0° 00' 00"
Sunlit
Object was in full shadow at epoch
Visualization orbit readout
Latitude
Unknown
Longitude
Unknown
Altitude
Unknown
Speed
Unknown
Apparent Right ascension
Unknown
Apparent Declination
Unknown
Sunlit
N/A
Visualization observer readout
Local Sidereal Time
03:55:16
Azimuth
Unknown
Elevation
Unknown
Doppler factor
Unknown
Orbital elements
Apogee altitude
1,214.63 km
Perigee altitude
1,182.359 km
Semi-major axis
7,576.632 km
Eccentricity
0.00213
Inclination
82.6307°
RAAN
190.2842°
Arg. of periapsis
275.7153°
True anomaly
84.39683°
Mean anomaly
84.154°
Eccentric anomaly
84.27541°
Mean motion
3.29101 °/min
Orbital period
109.39 mins
BSTAR
0.0010118
Loading maneuver chart data...
Computing Atmospheric mass density...
Loading historical data...
Loading historical data...
Loading historical data...
Loading historical data...
Loading historical data...
Loading historical data...
Loading historical data...

Documentation

Showing up to 5 results
|